CCA187 RKSI-ZSHC

Flight info

Callsign CCA187
Flight time N/A
Altitude 34100
Route NOPIK2Y NOPIK Y697 AGAVO W209 LILMO/K0857S1100 W209 OMLIB/K0854S1070 A326 IKADI/K0857S1100 W113 YCH W185 OF/K0848S1130 W95 SAPIN A470 IGRAT IGRAT81
Aircraft A321/M-SDE3FGHIRWY/LB1

Departure

Time 2026-05-03 20:57
Airport Incheon International Airport (RKSI)

Arrival

Time N/A
Airport Hangzhou Xiaoshan International Airport (ZSHC)
Time Latitude Longitude Altitude Speed Heading
2026-05-03 20:33 37.45076 126.44697 33 ft 0 kts 216°
2026-05-03 20:45 37.45095 126.44714 31 ft 4 kts 216°
2026-05-03 20:45 37.45117 126.44734 31 ft 4 kts 216°
2026-05-03 20:46 37.45135 126.44750 31 ft 4 kts 221°
2026-05-03 20:46 37.45146 126.44775 32 ft 4 kts 277°
2026-05-03 20:46 37.45141 126.44796 30 ft 1 kts 306°
2026-05-03 20:46 37.45156 126.44770 33 ft 4 kts 306°
2026-05-03 20:47 37.45172 126.44743 32 ft 4 kts 306°
2026-05-03 20:47 37.45187 126.44716 33 ft 3 kts 306°
2026-05-03 20:47 37.45189 126.44713 33 ft 0 kts 306°
2026-05-03 20:51 37.45199 126.44696 33 ft 7 kts 306°
2026-05-03 20:51 37.45232 126.44608 33 ft 13 kts 278°
2026-05-03 20:52 37.45206 126.44506 33 ft 12 kts 236°
2026-05-03 20:52 37.45158 126.44422 33 ft 12 kts 234°
2026-05-03 20:52 37.45104 126.44344 32 ft 12 kts 207°
2026-05-03 20:52 37.45025 126.44331 33 ft 12 kts 172°
2026-05-03 20:53 37.44937 126.44398 33 ft 15 kts 128°
2026-05-03 20:53 37.44877 126.44501 33 ft 14 kts 124°
2026-05-03 20:53 37.44823 126.44593 33 ft 12 kts 128°
2026-05-03 20:53 37.44732 126.44601 33 ft 16 kts 194°
2026-05-03 20:54 37.44625 126.44580 33 ft 15 kts 185°
2026-05-03 20:54 37.44490 126.44415 33 ft 14 kts 234°
2026-05-03 20:54 37.44436 126.44318 33 ft 13 kts 235°
2026-05-03 20:55 37.44384 126.44225 31 ft 13 kts 235°
2026-05-03 20:55 37.44369 126.44153 33 ft 6 kts 318°
2026-05-03 20:55 37.44394 126.44130 31 ft 0 kts 324°
2026-05-03 20:55 37.44394 126.44129 31 ft 0 kts 324°
2026-05-03 20:56 37.44417 126.44108 33 ft 20 kts 324°
2026-05-03 20:56 37.44738 126.43821 33 ft 90 kts 324°
2026-05-03 20:56 37.45405 126.43229 32 ft 142 kts 325°
2026-05-03 20:56 37.46319 126.42427 150 ft 171 kts 324°
2026-05-03 20:57 37.47296 126.41553 684 ft 174 kts 325°
2026-05-03 20:57 37.48185 126.40602 1390 ft 165 kts 316°
2026-05-03 20:57 37.48886 126.39472 2087 ft 164 kts 307°
2026-05-03 20:57 37.49472 126.38225 2685 ft 166 kts 305°
2026-05-03 20:58 37.50030 126.36940 3222 ft 171 kts 296°
2026-05-03 20:58 37.50226 126.35425 3737 ft 180 kts 281°
2026-05-03 20:58 37.50244 126.33827 4254 ft 186 kts 277°
2026-05-03 20:58 37.50291 126.32117 4470 ft 206 kts 278°
2026-05-03 20:59 37.50371 126.30210 4643 ft 232 kts 278°
2026-05-03 20:59 37.50461 126.28110 5195 ft 245 kts 278°
2026-05-03 20:59 37.50547 126.25939 6018 ft 249 kts 277°
2026-05-03 20:59 37.50629 126.23748 6831 ft 252 kts 277°
2026-05-03 21:00 37.50710 126.21557 7631 ft 254 kts 277°
2026-05-03 21:00 37.50737 126.20801 7913 ft 255 kts 277°
2026-05-03 21:00 37.50164 126.17074 9257 ft 273 kts 250°
2026-05-03 21:00 37.49147 126.14997 10032 ft 280 kts 243°
2026-05-03 21:01 37.48041 126.12898 10449 ft 297 kts 243°
2026-05-03 21:01 37.46841 126.10656 10619 ft 323 kts 238°
2026-05-03 21:01 37.45227 126.08510 10756 ft 349 kts 230°
2026-05-03 21:01 37.43475 126.06351 11158 ft 361 kts 229°
2026-05-03 21:02 37.41644 126.04147 11820 ft 366 kts 229°
2026-05-03 21:02 37.39786 126.01926 12538 ft 369 kts 229°
2026-05-03 21:02 37.37914 125.99684 13268 ft 372 kts 229°
2026-05-03 21:02 37.36040 125.97430 13837 ft 374 kts 229°
2026-05-03 21:03 37.34155 125.95147 14377 ft 376 kts 229°
2026-05-03 21:03 37.32283 125.92878 15020 ft 378 kts 229°
2026-05-03 21:03 37.30384 125.90574 15636 ft 381 kts 229°
2026-05-03 21:03 37.28470 125.88251 16243 ft 383 kts 229°
2026-05-03 21:04 37.26539 125.85911 16830 ft 386 kts 229°
2026-05-03 21:04 37.24599 125.83565 17410 ft 389 kts 229°
2026-05-03 21:04 37.22641 125.81203 17997 ft 392 kts 229°
2026-05-03 21:04 37.20663 125.78819 18526 ft 394 kts 229°
2026-05-03 21:05 37.18676 125.76424 19036 ft 397 kts 229°
2026-05-03 21:05 37.16694 125.74037 19506 ft 400 kts 229°
2026-05-03 21:05 37.14677 125.71611 19966 ft 403 kts 229°
2026-05-03 21:05 37.12644 125.69167 20469 ft 405 kts 229°
2026-05-03 21:06 37.10597 125.66707 20958 ft 408 kts 229°
2026-05-03 21:06 37.08541 125.64238 21446 ft 411 kts 229°
2026-05-03 21:06 37.06468 125.61754 21921 ft 413 kts 229°
2026-05-03 21:06 37.04382 125.59251 22385 ft 416 kts 229°
2026-05-03 21:07 37.02288 125.56733 22843 ft 419 kts 229°
2026-05-03 21:07 37.00176 125.54206 23294 ft 420 kts 229°
2026-05-03 21:07 36.98086 125.51711 23780 ft 420 kts 229°
2026-05-03 21:07 36.95961 125.49175 24142 ft 423 kts 229°
2026-05-03 21:08 36.93822 125.46615 24336 ft 429 kts 229°
2026-05-03 21:08 36.91655 125.44026 24657 ft 432 kts 229°
2026-05-03 21:08 36.89477 125.41433 25015 ft 434 kts 229°
2026-05-03 21:08 36.87285 125.38824 25376 ft 435 kts 229°
2026-05-03 21:09 36.85101 125.36223 25802 ft 433 kts 229°
2026-05-03 21:09 36.82914 125.33622 26227 ft 433 kts 229°
2026-05-03 21:09 36.80734 125.31028 26598 ft 434 kts 229°
2026-05-03 21:09 36.78543 125.28424 26958 ft 435 kts 229°
2026-05-03 21:10 36.76347 125.25819 27296 ft 436 kts 229°
2026-05-03 21:10 36.74136 125.23194 27557 ft 439 kts 229°
2026-05-03 21:10 36.71923 125.20575 27749 ft 442 kts 229°
2026-05-03 21:10 36.69702 125.17956 28294 ft 437 kts 229°
2026-05-03 21:11 36.67501 125.15363 28810 ft 433 kts 229°
2026-05-03 21:11 36.65317 125.12794 29286 ft 430 kts 229°
2026-05-03 21:11 36.63149 125.10243 29747 ft 428 kts 229°
2026-05-03 21:11 36.60990 125.07703 30158 ft 426 kts 229°
2026-05-03 21:12 36.58845 125.05175 30510 ft 424 kts 230°
2026-05-03 21:12 36.56715 125.02658 30921 ft 419 kts 230°
2026-05-03 21:12 36.55320 125.01015 31250 ft 415 kts 230°
2026-05-03 21:12 36.52553 124.97761 31740 ft 413 kts 231°
2026-05-03 21:13 36.50455 124.95284 31949 ft 415 kts 231°
2026-05-03 21:13 36.49066 124.93644 32128 ft 416 kts 231°
2026-05-03 21:13 36.46956 124.91160 32443 ft 415 kts 231°
2026-05-03 21:13 36.44854 124.88695 32808 ft 414 kts 231°
2026-05-03 21:14 36.42781 124.86273 33152 ft 410 kts 231°
2026-05-03 21:14 36.40704 124.83849 33611 ft 406 kts 232°
2026-05-03 21:14 36.38647 124.81450 33961 ft 405 kts 232°
2026-05-03 21:14 36.36612 124.79076 34054 ft 404 kts 232°
2026-05-03 21:15 36.32526 124.74316 34074 ft 401 kts 232°
2026-05-03 21:15 36.28451 124.69560 34053 ft 401 kts 232°
2026-05-03 21:16 36.24408 124.64843 34080 ft 399 kts 232°
2026-05-03 21:16 36.20347 124.60124 34086 ft 399 kts 232°
2026-05-03 21:17 36.16308 124.55440 34091 ft 399 kts 232°
2026-05-03 21:17 36.12262 124.50756 34062 ft 395 kts 232°
2026-05-03 21:18 36.08271 124.46148 34090 ft 393 kts 232°
2026-05-03 21:18 36.04269 124.41505 34093 ft 393 kts 232°
2026-05-03 21:19 36.00293 124.36914 34094 ft 393 kts 232°
2026-05-03 21:19 35.96306 124.32324 34104 ft 391 kts 232°
2026-05-03 21:20 35.92330 124.27747 34129 ft 390 kts 232°
2026-05-03 21:20 35.88363 124.23192 34131 ft 388 kts 232°
2026-05-03 21:21 35.84396 124.18635 34121 ft 389 kts 232°
2026-05-03 21:21 35.80436 124.14095 34113 ft 390 kts 232°
2026-05-03 21:22 35.76466 124.09564 34111 ft 391 kts 232°
2026-05-03 21:22 35.72472 124.04999 34113 ft 391 kts 232°
2026-05-03 21:23 35.68507 124.00482 34092 ft 388 kts 232°
2026-05-03 21:23 35.64570 123.96028 34119 ft 380 kts 232°
2026-05-03 21:24 35.60693 123.91614 34125 ft 382 kts 232°
2026-05-03 21:24 35.56779 123.87152 34126 ft 383 kts 232°
2026-05-03 21:25 35.52885 123.82733 34097 ft 381 kts 232°
2026-05-03 21:25 35.49125 123.78217 34119 ft 375 kts 235°
2026-05-03 21:26 35.45564 123.73566 34131 ft 373 kts 236°
2026-05-03 21:26 35.42023 123.68908 34138 ft 373 kts 236°
2026-05-03 21:27 35.38471 123.64313 34072 ft 374 kts 235°
2026-05-03 21:27 35.34869 123.59708 34128 ft 372 kts 235°
2026-05-03 21:28 35.31309 123.55165 34134 ft 371 kts 235°
2026-05-03 21:28 35.27744 123.50612 34140 ft 370 kts 235°
2026-05-03 21:29 35.24187 123.46062 34145 ft 369 kts 235°
2026-05-03 21:29 35.20670 123.41570 34155 ft 365 kts 235°
2026-05-03 21:30 35.17156 123.37113 34172 ft 362 kts 235°
2026-05-03 21:30 35.13674 123.32691 34175 ft 359 kts 235°
2026-05-03 21:31 35.10213 123.28295 34172 ft 358 kts 235°
2026-05-03 21:31 35.06769 123.23941 34146 ft 349 kts 235°
2026-05-03 21:32 35.03448 123.19758 34149 ft 340 kts 236°
2026-05-03 21:32 35.00204 123.15635 34176 ft 339 kts 236°
2026-05-03 21:33 34.96876 123.11406 34157 ft 350 kts 236°
2026-05-03 21:33 34.93492 123.07128 34158 ft 352 kts 235°
2026-05-03 21:34 34.90178 123.02987 34154 ft 340 kts 235°
2026-05-03 21:34 34.86894 122.98878 34160 ft 337 kts 236°
2026-05-03 21:35 34.83664 122.94806 34159 ft 336 kts 236°
2026-05-03 21:35 34.80413 122.90707 34159 ft 336 kts 236°
2026-05-03 21:36 34.77144 122.86606 34102 ft 337 kts 236°
2026-05-03 21:36 34.73894 122.82544 34133 ft 337 kts 236°
2026-05-03 21:37 34.70630 122.78458 34155 ft 336 kts 236°
2026-05-03 21:37 34.67365 122.74378 34151 ft 336 kts 236°
2026-05-03 21:38 34.64617 122.70953 34153 ft 336 kts 236°
2026-05-03 21:38 34.61349 122.66874 34098 ft 336 kts 235°
2026-05-03 21:39 34.58100 122.62823 34146 ft 337 kts 235°
2026-05-03 21:39 34.54811 122.58742 34160 ft 338 kts 235°
2026-05-03 21:40 34.51514 122.54654 34163 ft 338 kts 235°
2026-05-03 21:40 34.48239 122.50591 34165 ft 338 kts 235°
2026-05-03 21:41 34.44950 122.46522 34127 ft 338 kts 235°
2026-05-03 21:41 34.41671 122.42458 34142 ft 339 kts 235°
2026-05-03 21:42 34.38364 122.38376 34153 ft 339 kts 235°
2026-05-03 21:42 34.35077 122.34315 34160 ft 339 kts 235°
2026-05-03 21:43 34.31764 122.30231 34165 ft 340 kts 235°
2026-05-03 21:43 34.28461 122.26156 34167 ft 340 kts 235°
2026-05-03 21:44 34.25236 122.22187 34168 ft 341 kts 235°
2026-05-03 21:44 34.21918 122.18116 34169 ft 341 kts 235°
2026-05-03 21:45 34.18592 122.14029 34171 ft 341 kts 235°
2026-05-03 21:45 34.15275 122.09967 34173 ft 341 kts 234°
2026-05-03 21:46 34.11936 122.05877 34153 ft 343 kts 234°
2026-05-03 21:46 34.08563 122.01748 34169 ft 345 kts 234°
2026-05-03 21:47 34.05207 121.97653 34176 ft 345 kts 234°
2026-05-03 21:47 34.01827 121.93530 34180 ft 345 kts 234°
2026-05-03 21:48 33.98442 121.89408 34183 ft 345 kts 234°
2026-05-03 21:48 33.95083 121.85321 34159 ft 345 kts 233°
2026-05-03 21:49 33.91694 121.81206 34170 ft 346 kts 233°
2026-05-03 21:49 33.88301 121.77092 34172 ft 347 kts 233°
2026-05-03 21:50 33.84900 121.72956 34173 ft 347 kts 233°
2026-05-03 21:50 33.81511 121.68849 34172 ft 348 kts 233°
2026-05-03 21:51 33.78093 121.64716 34161 ft 349 kts 233°
2026-05-03 21:51 33.74660 121.60574 34173 ft 349 kts 233°
2026-05-03 21:52 33.71251 121.56463 34176 ft 349 kts 233°
2026-05-03 21:52 33.67827 121.52335 34181 ft 349 kts 233°
2026-05-03 21:53 33.64390 121.48197 34186 ft 350 kts 233°
2026-05-03 21:53 33.60945 121.44056 34149 ft 349 kts 233°
2026-05-03 21:54 33.57511 121.39933 34158 ft 349 kts 233°
2026-05-03 21:54 33.54094 121.35828 34174 ft 349 kts 233°
2026-05-03 21:55 33.50667 121.31706 34181 ft 349 kts 233°
2026-05-03 21:55 33.47234 121.27597 34185 ft 349 kts 233°
2026-05-03 21:56 33.43789 121.23491 34165 ft 349 kts 232°
2026-05-03 21:56 33.40362 121.19407 34168 ft 349 kts 232°
2026-05-03 21:57 33.36917 121.15293 34168 ft 350 kts 232°
2026-05-03 21:57 33.33482 121.11205 34168 ft 350 kts 232°
2026-05-03 21:58 33.30027 121.07095 34180 ft 350 kts 232°
2026-05-03 21:58 33.26447 121.03093 34167 ft 360 kts 224°
2026-05-03 21:59 33.22327 120.99705 34177 ft 361 kts 223°
2026-05-03 21:59 33.18861 120.96886 34180 ft 361 kts 223°
2026-05-03 22:00 33.14015 120.92949 34198 ft 361 kts 224°
2026-05-03 22:00 33.10551 120.90132 34149 ft 361 kts 223°
2026-05-03 22:01 33.06404 120.86756 34158 ft 362 kts 223°
2026-05-03 22:01 33.02229 120.83367 34165 ft 363 kts 223°
2026-05-03 22:02 32.98042 120.79976 34175 ft 364 kts 223°
2026-05-03 22:02 32.93843 120.76578 34180 ft 364 kts 223°
2026-05-03 22:03 32.89681 120.73212 34158 ft 365 kts 223°
2026-05-03 22:03 32.85471 120.69805 34168 ft 365 kts 223°
2026-05-03 22:04 32.81261 120.66405 34178 ft 365 kts 222°
2026-05-03 22:04 32.77085 120.63037 34186 ft 365 kts 222°
2026-05-03 22:05 32.72874 120.59647 34149 ft 365 kts 222°
2026-05-03 22:05 32.68666 120.56266 34168 ft 365 kts 222°
2026-05-03 22:06 32.64461 120.52888 34175 ft 364 kts 223°
2026-05-03 22:06 32.60288 120.49530 34180 ft 364 kts 223°
2026-05-03 22:07 32.56091 120.46161 34184 ft 364 kts 222°
2026-05-03 22:07 32.53856 120.44682 34184 ft 378 kts 211°
2026-05-03 22:07 32.51256 120.43875 34186 ft 389 kts 204°
2026-05-03 22:08 32.45948 120.42558 34186 ft 391 kts 203°
2026-05-03 22:08 32.40599 120.41295 34186 ft 391 kts 203°
2026-05-03 22:09 32.35293 120.40018 34188 ft 390 kts 204°
2026-05-03 22:10 32.27302 120.38053 34176 ft 391 kts 203°
2026-05-03 22:10 32.22008 120.36756 34180 ft 391 kts 203°
2026-05-03 22:11 32.16683 120.35453 34186 ft 390 kts 203°
2026-05-03 22:11 32.11360 120.34155 34179 ft 390 kts 203°
2026-05-03 22:12 32.06038 120.32861 34162 ft 391 kts 203°
2026-05-03 22:12 32.00711 120.31568 34170 ft 390 kts 203°
2026-05-03 22:13 31.95382 120.30276 34177 ft 390 kts 203°
2026-05-03 22:13 31.90092 120.28994 34177 ft 390 kts 203°
2026-05-03 22:14 31.84774 120.27704 34161 ft 390 kts 202°
2026-05-03 22:14 31.79456 120.26416 34169 ft 390 kts 202°